Live-Position
3D-Globus wird geladen...
Über Starlink 33813
Group: 3 satellites
Beschreibung wird geladen...
Nächste Überflüge
Passes for default location (London). Set your location on the main map for personalized predictions.
Höhenverlauf
Loading altitude history...
No altitude history available
Zweizeiliger Elementsatz
1 63585U 25076S 26126.61080590 .00027201 00000-0 99418-3 0 9999
2 63585 43.0002 354.1585 0000703 22.8162 337.2721 15.27585268 60695
Epoch: 6. Mai 2026 •
Age: 9 hours
Aktueller Status
Höhe 495.0 km
Geschwindigkeit 7.62 km/s
Subsatellitenpunkt -39.96°S,
67.3°E
Startdatum 14. Apr. 2025
Alter 1 years
Typ internet
Startgruppe
Falcon 9 •
Group 6-73 •
26 satellites
Starlink 32959
63569
Starlink 32956 63570
Starlink 33722 63571
Starlink 33739 63572
Starlink 33683 63573
Starlink 33732 63575
Starlink 33800 63576
Starlink 33632 63577
Starlink 33719 63578
Starlink 33755 63579
Starlink 33752 63580
Starlink 33714 63581
Starlink 33814 63582
Starlink 33817 63583
Starlink 33820 63584
Starlink 33834 63586
Starlink 33830 63587
Starlink 33651 63588
Starlink 33788 63589
Starlink 33805 63590
...and 5 more
Technische Details
Klassifizierung Payload
Masse 575.00 kg
Trockenmasse 530.00 kg
Gesamtmasse 575.00 kg
Länge 0.30 m
Durchmesser 4.10 m
Spannweite 29.00 m
Form Box + pan
Hersteller SPXS
Bus-Typ Starlink V2MO
Phasenstatus In Orbit
Besitzer/Staat SPXS/US
Most Searched
Loading...